[[{"header":{"parameterUnit":"m.s-1","parameterCategory":2,"la1":30.2991,"la2":30.254,"lo1":-89.0895,"lo2":-89.0444,"dy":0.0017,"dx":0.0017,"nx":28,"ny":28,"refTime":"2024-03-24T03:00:00:Z","depth":"0","parameterNumber":2,"parameterNumberName":"U-component_of_CURRENTS"},"data":[0,0,0,0,0,0,0,0,0,0,0,0,0,0,0,0,0,0,0,0,0,0,0,0,0,0,0,0,0,0,0,0,0,0,0,0,0,0,0,0,0,0,0,0,0,0,0,0,0,0,0,0,0,0,0,0,0,0,-0.2579,-0.258,0,-0.2593,-0.2593,-0.2593,-0.2589,-0.2589,-0.2589,-0.2589,-0.253,-0.2529,-0.2527,0,0,0,0,0,0,0,0,0,0,0,0,0,-0.25,-0.2501,-0.2579,-0.258,-0.258,-0.2593,-0.2593,-0.2593,-0.2589,-0.2589,-0.2589,-0.2589,-0.2531,-0.2529,-0.2527,0,0,0,0,0,0,0,0,0,0,0,0,0,-0.2522,-0.2502,-0.2579,-0.2583,-0.2583,-0.2593,-0.2593,-0.2593,-0.2589,-0.2589,-0.2589,-0.2589,-0.2532,-0.2529,-0.2527,-0.251,0,0,-0.2519,-0.2518,0,0,0,0,0,0,0,0,-0.2521,-0.2525,-0.2582,-0.2583,-0.2583,-0.2593,-0.2544,-0.2563,-0.2589,-0.2583,-0.2589,-0.2589,-0.2547,-0.2543,-0.2541,-0.2507,-0.2504,-0.2519,-0.2518,-0.2517,-0.2516,0,0,0,0,0,0,0,-0.252,-0.2524,-0.2581,-0.2582,-0.2583,-0.2567,-0.257,-0.2547,-0.256,-0.2583,-0.2584,-0.2592,-0.2546,-0.2544,-0.254,-0.2504,-0.2519,-0.2517,-0.2515,-0.2515,-0.244,-0.244,0,0,0,0,0,0,-0.2529,-0.2523,-0.2581,-0.2582,-0.2556,-0.2569,-0.2572,-0.2587,-0.2562,-0.256,-0.2592,-0.2592,-0.2548,-0.2543,-0.2537,-0.2527,-0.2517,-0.2514,-0.2513,-0.2441,-0.244,-0.244,0,0,0,0,0,0,-0.2527,-0.2534,-0.258,-0.2555,-0.256,-0.2571,-0.2586,-0.2587,-0.2588,-0.257,-0.2565,-0.2594,-0.2548,-0.2541,-0.2518,-0.2524,-0.2513,-0.2511,-0.2441,-0.2441,-0.244,-0.2497,0,0,0,0,0,0,-0.2525,-0.2533,-0.2538,-0.2556,-0.2562,-0.2591,-0.2587,-0.2587,-0.2595,-0.2595,-0.2569,-0.2564,-0.2547,-0.2522,-0.2515,-0.252,-0.2509,-0.2442,-0.2441,-0.244,-0.2496,-0.2499,-0.2501,0,0,0,0,0,-0.2522,-0.2535,-0.2539,-0.2545,-0.2572,-0.2591,-0.2592,-0.2597,-0.2595,-0.2597,-0.2577,-0.2565,-0.2511,-0.2519,-0.2512,-0.2516,-0.2443,-0.2441,-0.244,-0.2495,-0.2498,-0.2501,0,0,0,0,0,0,-0.2498,-0.2536,-0.2541,-0.2563,-0.2578,-0.2592,-0.2596,-0.2599,-0.2587,-0.2584,-0.2561,-0.2554,-0.2534,-0.2512,-0.2522,-0.2489,-0.2473,-0.2471,-0.2517,-0.252,-0.2522,-0.2547,-0.2507,0,0,0,0,0,-0.2498,-0.2519,-0.2546,-0.2561,-0.2572,-0.2582,-0.2588,-0.2596,-0.2594,-0.2589,-0.2571,-0.2546,-0.2523,-0.2512,-0.2486,-0.2471,-0.2482,-0.2465,-0.2468,-0.247,-0.2483,-0.2492,-0.2498,-0.2436,-0.2436,-0.2436,0,0,-0.2491,-0.2516,-0.2526,-0.2558,-0.2568,-0.2592,-0.2585,-0.2602,-0.2616,-0.2582,-0.2581,-0.2553,-0.2519,-0.2503,-0.2492,-0.2487,-0.2498,-0.2469,-0.2471,-0.2483,-0.2492,-0.2498,-0.2504,-0.2435,-0.2435,-0.2435,0,0,-0.2497,-0.2513,-0.2535,-0.2556,-0.2584,-0.2594,-0.2602,-0.2618,-0.2618,-0.2615,-0.2591,-0.257,-0.2536,-0.2519,-0.2504,-0.25,-0.2508,-0.2485,-0.2523,-0.2532,-0.2538,-0.2543,-0.2595,-0.2604,-0.249,-0.249,-0.249,0,-0.2485,-0.2527,-0.2541,-0.2572,-0.2595,-0.2599,-0.263,-0.2631,-0.2634,-0.2639,-0.2621,-0.2582,-0.2547,-0.2539,-0.2534,-0.2509,-0.253,-0.252,-0.2539,-0.2544,-0.2548,-0.26,-0.2609,-0.2492,-0.2492,-0.2492,-0.2492,0,-0.2514,-0.2549,-0.2564,-0.261,-0.2628,-0.2656,-0.2672,-0.2682,-0.2679,-0.2681,-0.267,-0.2625,-0.2609,-0.2586,-0.2558,-0.2568,-0.258,-0.2543,-0.2542,-0.2559,-0.2611,-0.262,-0.2496,-0.2495,-0.2494,-0.2494,0,0,-0.2486,-0.257,-0.2575,-0.2614,-0.2657,-0.268,-0.2704,-0.2732,-0.2765,-0.2736,-0.2768,-0.2705,-0.2687,-0.2667,-0.2628,-0.2626,-0.2673,-0.2602,-0.2601,-0.2674,-0.2735,-0.2793,-0.2809,-0.2644,-0.2645,-0.2645,-0.2771,0,-0.2506,-0.2577,-0.2612,-0.2676,-0.2715,-0.2743,-0.2774,-0.2796,-0.2807,-0.2834,-0.2786,-0.2786,-0.2716,-0.2713,-0.27,-0.2677,-0.2695,-0.2646,-0.269,-0.2693,-0.2757,-0.282,-0.2817,-0.2932,-0.278,-0.2781,-0.2783,0,-0.2522,-0.2575,-0.264,-0.2736,-0.2755,-0.2785,-0.2853,-0.2884,-0.2916,-0.2924,-0.2917,-0.2893,-0.2878,-0.2814,-0.2809,-0.2784,-0.277,-0.2751,-0.2755,-0.2796,-0.2767,-0.2881,-0.2954,-0.2952,-0.2797,-0.2796,-0.2795,0,-0.2501,-0.2597,-0.2653,-0.2682,-0.2778,-0.2807,-0.2849,-0.29,-0.2949,-0.2978,-0.3022,-0.2995,-0.3,-0.2961,-0.2919,-0.2873,-0.2936,-0.2866,-0.2914,-0.2919,-0.292,-0.2924,-0.3011,-0.2879,-0.2879,-0.2878,-0.2878,0,-0.2513,-0.2561,-0.2647,-0.2679,-0.2756,-0.281,-0.2886,-0.2932,-0.3007,-0.3082,-0.306,-0.3114,-0.3035,-0.3056,-0.2991,-0.3011,-0.2998,-0.2955,-0.2959,-0.2942,-0.2946,-0.2943,-0.292,-0.2883,-0.2882,-0.2881,-0.288,0,-0.2484,-0.2542,-0.2617,-0.2716,-0.2748,-0.2795,-0.2914,-0.2979,-0.3047,-0.3151,-0.3167,-0.3222,-0.3259,-0.3214,-0.3185,-0.3132,-0.3105,-0.3123,-0.3136,-0.3139,-0.3168,-0.3147,-0.3199,-0.3119,-0.3209,-0.3211,-0.3213,0,-0.2478,-0.2506,-0.2625,-0.2665,-0.2707,-0.2788,-0.2858,-0.2969,-0.3041,-0.3219,-0.3268,-0.3362,-0.3427,-0.3446,-0.3374,-0.3343,-0.3223,-0.3304,-0.3197,-0.3213,-0.3191,-0.3117,-0.3036,-0.3231,-0.3233,-0.3235,-0.3236,0,-0.2447,-0.2483,-0.2541,-0.2628,-0.2701,-0.2802,-0.29,-0.2983,-0.3134,-0.3245,-0.341,-0.3497,-0.3581,-0.3589,-0.3559,-0.3476,-0.3271,-0.3337,-0.333,-0.322,-0.3165,-0.3075,-0.3134,-0.325,-0.3248,-0.3247,-0.3246,-0.3246,-0.2403,-0.2432,-0.2494,-0.2571,-0.2669,-0.2778,-0.28,-0.2957,-0.3096,-0.3249,-0.3437,-0.3575,-0.3697,-0.3675,-0.3618,-0.3526,-0.3412,-0.3414,-0.3396,-0.3326,-0.3224,-0.3352,-0.3475,-0.3475,-0.3475,-0.3475,-0.3475,0,-0.2338,-0.2369,-0.243,-0.2511,-0.2569,-0.2653,-0.279,-0.2793,-0.2918,-0.3186,-0.3338,-0.3634,-0.3711,-0.3746,-0.3739,-0.3619,-0.344,-0.3499,-0.3371,-0.3282,-0.3398,-0.3375,-0.3509,-0.3509,-0.3509,-0.3509,-0.3509,-0.3509,-0.2299,-0.2318,-0.2349,-0.2378,-0.2422,-0.242,-0.246,-0.253,-0.2667,-0.2893,-0.314,-0.3386,-0.3492,-0.3911,-0.3829,-0.3669,-0.3484,-0.3441,-0.3345,-0.3435,-0.3423,-0.3412,-0.3386,-0.352,-0.352,-0.316,-0.3158,-0.3157]},{"header":{"parameterUnit":"m.s-1","parameterCategory":2,"la1":30.2991,"la2":30.254,"lo1":-89.0895,"lo2":-89.0444,"dy":0.0017,"dx":0.0017,"nx":28,"ny":28,"refTime":"2024-03-24T03:00:00:Z","depth":"0","parameterNumber":3,"parameterNumberName":"V-component_of_CURRENTS"},"data":[0,0,0,0,0,0,0,0,0,0,0,0,0,0,0,0,0,0,0,0,0,0,0,0,0,0,0,0,0,0,0,0,0,0,0,0,0,0,0,0,0,0,0,0,0,0,0,0,0,0,0,0,0,0,0,0,0,0,-0.005,-0.0049,0,0.0051,0.0052,0.0053,0.0108,0.0108,0.0108,0.0108,0.021,0.0213,0.0216,0,0,0,0,0,0,0,0,0,0,0,0,0,-0.0118,-0.0117,-0.005,-0.0049,-0.0048,0.0051,0.0052,0.0054,0.0108,0.0108,0.0108,0.0108,0.0209,0.0213,0.0216,0,0,0,0,0,0,0,0,0,0,0,0,0,-0.0059,-0.0117,-0.005,-0.001,-0.0005,0.005,0.0052,0.0054,0.0108,0.0108,0.0108,0.0108,0.0208,0.0212,0.0216,0.0241,0,0,0.0229,0.0231,0,0,0,0,0,0,0,0,-0.0063,-0.0057,-0.0017,-0.0012,-0.0007,0.0066,0.0066,0.0116,0.0108,0.0066,0.0108,0.0108,0.0161,0.0169,0.019,0.0246,0.025,0.0229,0.0232,0.0233,0.0235,0,0,0,0,0,0,0,-0.0067,-0.006,-0.0009,-0.0016,-0.001,0.003,0.0038,0.0076,0.0113,0.007,0.0073,0.0083,0.0164,0.0186,0.0193,0.0251,0.0229,0.0233,0.0235,0.0237,0.0362,0.0363,0,0,0,0,0,0,-0.0085,-0.0064,-0.0012,-0.0006,-0.0036,0.0031,0.004,0.0043,0.0113,0.0123,0.0083,0.0085,0.0179,0.0188,0.0196,0.0238,0.0233,0.0237,0.0239,0.0361,0.0362,0.0363,0,0,0,0,0,0,-0.0087,-0.0082,-0.0016,-0.0033,-0.0022,0.0031,0.0035,0.0045,0.0067,0.0123,0.0133,0.0094,0.0179,0.0191,0.0237,0.0242,0.0239,0.0243,0.036,0.0361,0.0363,0.0316,0,0,0,0,0,0,-0.009,-0.0083,-0.0089,-0.0035,-0.0022,0.0009,0.0035,0.0047,0.0072,0.0076,0.0136,0.0146,0.018,0.0231,0.0241,0.0248,0.0246,0.0359,0.0361,0.0362,0.0317,0.0316,0.0315,0,0,0,0,0,-0.0093,-0.0107,-0.009,-0.0084,-0.0032,0.0009,0.0019,0.0059,0.0072,0.0079,0.0127,0.0144,0.0249,0.0235,0.0247,0.0255,0.0358,0.036,0.0362,0.0317,0.0316,0.0315,0,0,0,0,0,0,-0.0139,-0.0101,-0.0082,-0.0083,-0.0042,0.0018,0.0026,0.0055,0.0099,0.0102,0.0155,0.0169,0.0214,0.0243,0.0226,0.0298,0.0306,0.0311,0.0268,0.0268,0.0267,0.0263,0.0249,0,0,0,0,0,-0.0152,-0.0151,-0.0102,-0.01,-0.0085,-0.0029,-0.0008,0.002,0.0067,0.0086,0.0131,0.0182,0.0232,0.0255,0.0301,0.0336,0.0376,0.0351,0.035,0.0349,0.0356,0.0423,0.0428,0.037,0.037,0.037,0,0,-0.0169,-0.0147,-0.0146,-0.011,-0.0075,-0.0053,-0.0016,0.001,0.0037,0.009,0.0134,0.0181,0.0243,0.0287,0.0309,0.031,0.0387,0.0352,0.035,0.0358,0.0425,0.0431,0.0436,0.0371,0.0371,0.0371,0,0,-0.0204,-0.0183,-0.0194,-0.016,-0.0117,-0.0078,-0.0073,-0.0014,0.0019,0.0067,0.0117,0.0172,0.0236,0.029,0.0324,0.0349,0.0382,0.0354,0.0344,0.0408,0.0413,0.0418,0.0468,0.0478,0.0351,0.0351,0.035,0,-0.0227,-0.0232,-0.0189,-0.0182,-0.0158,-0.0093,-0.0088,-0.0039,0.003,0.0062,0.0072,0.0197,0.0244,0.0317,0.0326,0.0347,0.038,0.0337,0.0405,0.0411,0.0417,0.0467,0.0479,0.0349,0.0349,0.0349,0.0349,0,-0.026,-0.0261,-0.0262,-0.0231,-0.0196,-0.0183,-0.011,-0.0072,-0.0027,0.0028,0.0107,0.0183,0.0256,0.0279,0.031,0.0376,0.0384,0.0396,0.0401,0.042,0.0472,0.0485,0.0346,0.0346,0.0347,0.0348,0,0,-0.0326,-0.0297,-0.0298,-0.0294,-0.0223,-0.0203,-0.0148,-0.0083,-0.005,0.0032,0.0084,0.0185,0.0229,0.0271,0.0322,0.038,0.0447,0.0396,0.04,0.0434,0.0575,0.066,0.0682,0.0462,0.0464,0.0466,0.0591,0,-0.0369,-0.0395,-0.0346,-0.0343,-0.0348,-0.0257,-0.0215,-0.0139,-0.0064,0.0004,0.011,0.0175,0.0226,0.0252,0.0324,0.042,0.048,0.0411,0.0563,0.0568,0.0632,0.0701,0.079,0.0917,0.0604,0.0606,0.0607,0,-0.0417,-0.0432,-0.0455,-0.0416,-0.0405,-0.0379,-0.0297,-0.025,-0.0123,-0.0064,0.0037,0.0121,0.0239,0.0263,0.0451,0.04,0.0484,0.0557,0.0563,0.0671,0.0678,0.0852,0.0952,0.1213,0.0627,0.0626,0.0624,0,-0.0507,-0.0499,-0.0528,-0.0512,-0.0457,-0.0434,-0.0394,-0.0281,-0.0245,-0.011,-0.0069,0.0093,0.0166,0.0307,0.0479,0.0458,0.0678,0.0668,0.0828,0.0833,0.0958,0.0972,0.1324,0.0796,0.0795,0.0795,0.0795,0,-0.0574,-0.0592,-0.0578,-0.0592,-0.0615,-0.0528,-0.0515,-0.0441,-0.034,-0.0299,-0.0125,-0.0049,0.0178,0.0337,0.0478,0.0714,0.0687,0.0854,0.0888,0.0945,0.0955,0.1225,0.131,0.08,0.0799,0.0798,0.0797,0,-0.0665,-0.0652,-0.0692,-0.0669,-0.0663,-0.0683,-0.0627,-0.0622,-0.0493,-0.0431,-0.0395,-0.0154,0.0086,0.0322,0.0572,0.0719,0.1077,0.0999,0.1051,0.109,0.1485,0.1561,0.1866,0.1971,0.1206,0.1209,0.1212,0,-0.0711,-0.0748,-0.0782,-0.0824,-0.0818,-0.0829,-0.0846,-0.0731,-0.0706,-0.0494,-0.0476,-0.0206,0.001,0.0448,0.0781,0.1099,0.1222,0.1322,0.1317,0.1563,0.1671,0.1674,0.1738,0.1454,0.1458,0.1462,0.1465,0,-0.0811,-0.0828,-0.0875,-0.0983,-0.1024,-0.1062,-0.1052,-0.104,-0.0889,-0.0784,-0.0582,-0.0376,0.0143,0.0633,0.1084,0.1238,0.1527,0.1405,0.1664,0.192,0.1943,0.2041,0.1296,0.1497,0.1494,0.1491,0.149,0.1488,-0.0889,-0.0967,-0.1051,-0.115,-0.1216,-0.1279,-0.1302,-0.1232,-0.1165,-0.0943,-0.0693,-0.0303,0.0507,0.1211,0.1416,0.1952,0.1816,0.2083,0.2158,0.2139,0.2259,0.1586,0.182,0.1819,0.1818,0.1817,0.1816,0,-0.0996,-0.1094,-0.121,-0.1332,-0.1451,-0.1432,-0.144,-0.1418,-0.1327,-0.0984,-0.0708,0.0233,0.0994,0.1663,0.2487,0.2728,0.2699,0.2814,0.2869,0.2897,0.2338,0.2373,0.2735,0.2735,0.2735,0.2734,0.2734,0.2734,-0.1055,-0.1213,-0.1293,-0.1528,-0.1608,-0.172,-0.1725,-0.1622,-0.1374,-0.0798,-0.0225,0.0268,0.1319,0.2762,0.3467,0.3453,0.3628,0.357,0.3649,0.3321,0.3258,0.3199,0.3259,0.3801,0.3802,0.4178,0.4182,0.4186]}],[{"header":{"parameterUnit":"m.s-1","parameterCategory":2,"la1":30.2991,"la2":30.254,"lo1":-89.0895,"lo2":-89.0444,"dy":0.0017,"dx":0.0017,"nx":28,"ny":28,"refTime":"2024-03-24T03:00:00:Z","depth":"2","parameterNumber":2,"parameterNumberName":"U-component_of_CURRENTS"},"data":[0,0,0,0,0,0,0,0,0,0,0,0,0,0,0,0,0,0,0,0,0,0,0,0,0,0,0,0,0,0,0,0,0,0,0,0,0,0,0,0,0,0,0,0,0,0,0,0,0,0,0,0,0,0,0,0,0,0,-0.2528,-0.2528,0,-0.2542,-0.2542,-0.2541,-0.2539,-0.2539,-0.2539,-0.2539,-0.2482,-0.248,-0.2478,0,0,0,0,0,0,0,0,0,0,0,0,0,-0.2449,-0.245,-0.2527,-0.2528,-0.2529,-0.2542,-0.2542,-0.2541,-0.2539,-0.2539,-0.2539,-0.2539,-0.2482,-0.248,-0.2478,0,0,0,0,0,0,0,0,0,0,0,0,0,-0.2471,-0.245,-0.2527,-0.2532,-0.2532,-0.2542,-0.2542,-0.2541,-0.2539,-0.2539,-0.2539,-0.2539,-0.2483,-0.248,-0.2478,-0.246,0,0,-0.2471,-0.2469,0,0,0,0,0,0,0,0,-0.247,-0.2474,-0.253,-0.2531,-0.2532,-0.2542,-0.2493,-0.2512,-0.2538,-0.2532,-0.2539,-0.2539,-0.2498,-0.2494,-0.2492,-0.2457,-0.2455,-0.247,-0.2469,-0.2468,-0.2467,0,0,0,0,0,0,0,-0.2468,-0.2473,-0.2529,-0.2531,-0.2532,-0.2516,-0.252,-0.2496,-0.2509,-0.2533,-0.2533,-0.2541,-0.2497,-0.2494,-0.249,-0.2454,-0.247,-0.2468,-0.2467,-0.2466,-0.2392,-0.2392,0,0,0,0,0,0,-0.2477,-0.2472,-0.2529,-0.253,-0.2505,-0.2518,-0.2522,-0.2535,-0.2511,-0.2509,-0.2541,-0.2541,-0.2498,-0.2493,-0.2488,-0.2478,-0.2468,-0.2466,-0.2464,-0.2393,-0.2392,-0.2391,0,0,0,0,0,0,-0.2476,-0.2483,-0.2528,-0.2504,-0.2509,-0.252,-0.2535,-0.2536,-0.2538,-0.2519,-0.2515,-0.2544,-0.2498,-0.2492,-0.2469,-0.2475,-0.2464,-0.2462,-0.2393,-0.2392,-0.2392,-0.2449,0,0,0,0,0,0,-0.2473,-0.2482,-0.2487,-0.2505,-0.2511,-0.2539,-0.2535,-0.2536,-0.2544,-0.2544,-0.252,-0.2515,-0.2498,-0.2473,-0.2467,-0.2472,-0.246,-0.2394,-0.2393,-0.2392,-0.2448,-0.245,-0.2452,0,0,0,0,0,-0.2471,-0.2483,-0.2488,-0.2494,-0.2521,-0.254,-0.2541,-0.2546,-0.2544,-0.2547,-0.2528,-0.2516,-0.2462,-0.2471,-0.2463,-0.2468,-0.2394,-0.2393,-0.2392,-0.2447,-0.245,-0.2452,0,0,0,0,0,0,-0.2448,-0.2485,-0.249,-0.2512,-0.2527,-0.2541,-0.2544,-0.2548,-0.2536,-0.2535,-0.2511,-0.2504,-0.2486,-0.2463,-0.2473,-0.244,-0.2425,-0.2422,-0.2469,-0.2472,-0.2474,-0.2498,-0.2458,0,0,0,0,0,-0.2447,-0.2468,-0.2495,-0.251,-0.252,-0.2531,-0.2537,-0.2546,-0.2543,-0.2539,-0.2522,-0.2497,-0.2474,-0.2463,-0.2438,-0.2422,-0.2433,-0.2417,-0.2419,-0.2422,-0.2435,-0.2443,-0.2449,-0.2388,-0.2388,-0.2388,0,0,-0.2441,-0.2465,-0.2475,-0.2507,-0.2517,-0.254,-0.2534,-0.2552,-0.2566,-0.2532,-0.2532,-0.2504,-0.247,-0.2454,-0.2444,-0.2439,-0.2449,-0.242,-0.2423,-0.2435,-0.2443,-0.2449,-0.2455,-0.2387,-0.2387,-0.2387,0,0,-0.2447,-0.2463,-0.2484,-0.2505,-0.2533,-0.2543,-0.2551,-0.2568,-0.2568,-0.2566,-0.2542,-0.2521,-0.2488,-0.247,-0.2455,-0.2452,-0.2459,-0.2437,-0.2475,-0.2483,-0.2489,-0.2494,-0.2546,-0.2555,-0.2442,-0.2442,-0.2442,0,-0.2435,-0.2476,-0.249,-0.2521,-0.2543,-0.2549,-0.2579,-0.258,-0.2584,-0.2589,-0.2571,-0.2533,-0.2499,-0.249,-0.2485,-0.2461,-0.2482,-0.2472,-0.249,-0.2495,-0.25,-0.2551,-0.256,-0.2444,-0.2444,-0.2444,-0.2443,0,-0.2463,-0.2498,-0.2513,-0.2558,-0.2576,-0.2604,-0.262,-0.263,-0.2628,-0.263,-0.2621,-0.2576,-0.256,-0.2537,-0.251,-0.2519,-0.2531,-0.2494,-0.2493,-0.251,-0.2562,-0.2571,-0.2448,-0.2447,-0.2446,-0.2446,0,0,-0.2436,-0.2518,-0.2524,-0.2562,-0.2605,-0.2627,-0.2652,-0.268,-0.2713,-0.2685,-0.2716,-0.2654,-0.2637,-0.2618,-0.2579,-0.2576,-0.2624,-0.2553,-0.2553,-0.2624,-0.2685,-0.2741,-0.2757,-0.2594,-0.2595,-0.2596,-0.2721,0,-0.2455,-0.2526,-0.256,-0.2623,-0.2662,-0.2689,-0.272,-0.2742,-0.2754,-0.2781,-0.2734,-0.2734,-0.2666,-0.2663,-0.265,-0.2628,-0.2646,-0.2596,-0.264,-0.2643,-0.2706,-0.2767,-0.2471,-0.2561,-0.2729,-0.2731,-0.2732,0,-0.2471,-0.2523,-0.2588,-0.2682,-0.2701,-0.2731,-0.2799,-0.283,-0.2861,-0.287,-0.2864,-0.2841,-0.2826,-0.2763,-0.2758,-0.2734,-0.272,-0.2701,-0.2705,-0.2744,-0.2715,-0.2561,-0.2571,-0.2747,-0.2746,-0.2745,-0.2744,0,-0.245,-0.2545,-0.26,-0.2629,-0.2723,-0.2753,-0.2795,-0.2846,-0.2894,-0.2924,-0.2968,-0.2941,-0.2947,-0.2909,-0.2867,-0.2821,-0.2884,-0.2814,-0.2861,-0.2866,-0.2617,-0.2599,-0.2827,-0.2827,-0.2827,-0.2826,-0.2826,0,-0.2462,-0.251,-0.2595,-0.2627,-0.2703,-0.2757,-0.2832,-0.2877,-0.2952,-0.3026,-0.3005,-0.3059,-0.2981,-0.3002,-0.2938,-0.2957,-0.2945,-0.2902,-0.2906,-0.2633,-0.2616,-0.2761,-0.2752,-0.2831,-0.283,-0.2829,-0.2828,0,-0.2434,-0.2491,-0.2565,-0.2662,-0.2695,-0.2742,-0.2859,-0.2923,-0.2992,-0.3095,-0.3111,-0.3166,-0.3202,-0.3158,-0.313,-0.3077,-0.3063,-0.3067,-0.2787,-0.2758,-0.3026,-0.3017,-0.3146,-0.3149,-0.3151,-0.3154,-0.3155,0,-0.2427,-0.2456,-0.2573,-0.2612,-0.2655,-0.2735,-0.2804,-0.2914,-0.2985,-0.3162,-0.321,-0.3303,-0.3353,-0.3371,-0.3232,-0.3181,-0.3189,-0.294,-0.2793,-0.307,-0.306,-0.3047,-0.3036,-0.2483,-0.2479,-0.2476,-0.2473,0,-0.2397,-0.2433,-0.249,-0.2576,-0.2649,-0.2748,-0.2844,-0.2926,-0.3076,-0.317,-0.3332,-0.3404,-0.3425,-0.3239,-0.318,-0.3082,-0.2921,-0.2886,-0.3215,-0.2479,-0.2463,-0.2448,-0.2454,-0.2446,-0.2448,-0.245,-0.2452,-0.2453,-0.2353,-0.2381,-0.2443,-0.2519,-0.2616,-0.2722,-0.2744,-0.2832,-0.2946,-0.2982,-0.3246,-0.3193,-0.3199,-0.2933,-0.2844,-0.2705,-0.2877,-0.2703,-0.2703,-0.2708,-0.2641,-0.2633,-0.2637,-0.264,-0.2644,-0.2646,-0.2649,0,-0.2255,-0.232,-0.238,-0.2459,-0.248,-0.2599,-0.2733,-0.2636,-0.2652,-0.2735,-0.2788,-0.258,-0.2534,-0.252,-0.2275,-0.2308,-0.2157,-0.2224,-0.1984,-0.2015,-0.2042,-0.1931,-0.1743,-0.1741,-0.1739,-0.1737,0,0,-0.2206,-0.2209,-0.2239,-0.2252,-0.2326,-0.2261,-0.2298,-0.219,-0.2138,-0.2014,-0.1973,-0.2203,-0.2386,-0.2006,-0.1985,-0.182,-0.1864,-0.1726,-0.2443,-0.2182,-0.2205,-0.2315,-0.2182,0,0,0,0,0]},{"header":{"parameterUnit":"m.s-1","parameterCategory":2,"la1":30.2991,"la2":30.254,"lo1":-89.0895,"lo2":-89.0444,"dy":0.0017,"dx":0.0017,"nx":28,"ny":28,"refTime":"2024-03-24T03:00:00:Z","depth":"2","parameterNumber":3,"parameterNumberName":"V-component_of_CURRENTS"},"data":[0,0,0,0,0,0,0,0,0,0,0,0,0,0,0,0,0,0,0,0,0,0,0,0,0,0,0,0,0,0,0,0,0,0,0,0,0,0,0,0,0,0,0,0,0,0,0,0,0,0,0,0,0,0,0,0,0,0,-0.0075,-0.0074,0,0.0025,0.0027,0.0028,0.0083,0.0083,0.0083,0.0083,0.0186,0.0188,0.0191,0,0,0,0,0,0,0,0,0,0,0,0,0,-0.0142,-0.0142,-0.0075,-0.0074,-0.0073,0.0025,0.0027,0.0028,0.0083,0.0083,0.0083,0.0083,0.0185,0.0188,0.0191,0,0,0,0,0,0,0,0,0,0,0,0,0,-0.0084,-0.0142,-0.0076,-0.0035,-0.003,0.0025,0.0027,0.0029,0.0083,0.0083,0.0083,0.0083,0.0184,0.0187,0.0191,0.0215,0,0,0.0204,0.0206,0,0,0,0,0,0,0,0,-0.0087,-0.0081,-0.0042,-0.0037,-0.0032,0.0041,0.0041,0.0091,0.0083,0.0041,0.0083,0.0083,0.0137,0.0144,0.0165,0.022,0.0225,0.0204,0.0207,0.0208,0.021,0,0,0,0,0,0,0,-0.0092,-0.0085,-0.0034,-0.0041,-0.0035,0.0005,0.0013,0.0051,0.0088,0.0045,0.0048,0.0058,0.0139,0.0161,0.0167,0.0226,0.0204,0.0208,0.021,0.0212,0.0336,0.0337,0,0,0,0,0,0,-0.011,-0.0089,-0.0038,-0.0031,-0.0061,0.0006,0.0015,0.0018,0.0088,0.0098,0.0058,0.006,0.0154,0.0163,0.0171,0.0213,0.0208,0.0212,0.0215,0.0335,0.0337,0.0337,0,0,0,0,0,0,-0.0112,-0.0107,-0.0042,-0.0058,-0.0047,0.0006,0.001,0.002,0.0042,0.0098,0.0108,0.0069,0.0154,0.0166,0.0212,0.0217,0.0214,0.0218,0.0334,0.0336,0.0337,0.0291,0,0,0,0,0,0,-0.0115,-0.0108,-0.0114,-0.006,-0.0047,-0.0016,0.001,0.0022,0.0047,0.0051,0.0111,0.0121,0.0155,0.0206,0.0216,0.0223,0.0221,0.0333,0.0335,0.0337,0.0292,0.0291,0.029,0,0,0,0,0,-0.0117,-0.0131,-0.0115,-0.0108,-0.0057,-0.0016,-0.0006,0.0034,0.0047,0.0054,0.0102,0.0119,0.0224,0.021,0.0222,0.0229,0.0333,0.0335,0.0336,0.0292,0.0291,0.029,0,0,0,0,0,0,-0.0163,-0.0125,-0.0106,-0.0108,-0.0067,-0.0008,0.0,0.003,0.0074,0.0077,0.013,0.0144,0.0188,0.0218,0.0201,0.0273,0.0281,0.0285,0.0243,0.0243,0.0242,0.0238,0.0224,0,0,0,0,0,-0.0176,-0.0176,-0.0126,-0.0125,-0.0109,-0.0054,-0.0033,-0.0005,0.0042,0.0061,0.0106,0.0157,0.0207,0.0229,0.0276,0.0311,0.0351,0.0326,0.0325,0.0324,0.0331,0.0397,0.0402,0.0344,0.0344,0.0344,0,0,-0.0193,-0.0172,-0.0171,-0.0134,-0.01,-0.0078,-0.0041,-0.0015,0.0012,0.0065,0.0109,0.0156,0.0217,0.0262,0.0284,0.0285,0.0361,0.0326,0.0325,0.0333,0.0399,0.0405,0.041,0.0345,0.0345,0.0345,0,0,-0.0228,-0.0207,-0.0218,-0.0185,-0.0141,-0.0103,-0.0098,-0.0039,-0.0006,0.0042,0.0092,0.0146,0.021,0.0265,0.0298,0.0323,0.0356,0.0329,0.0318,0.0382,0.0387,0.0392,0.0441,0.0451,0.0325,0.0325,0.0325,0,-0.0251,-0.0256,-0.0213,-0.0206,-0.0183,-0.0118,-0.0113,-0.0064,0.0005,0.0037,0.0047,0.0172,0.0218,0.0291,0.03,0.0321,0.0354,0.0311,0.0379,0.0385,0.0391,0.0441,0.0452,0.0323,0.0323,0.0323,0.0323,0,-0.0284,-0.0285,-0.0286,-0.0255,-0.0221,-0.0207,-0.0135,-0.0097,-0.0052,0.0003,0.0081,0.0157,0.023,0.0253,0.0284,0.035,0.0358,0.037,0.0375,0.0394,0.0445,0.0458,0.032,0.0321,0.0321,0.0322,0,0,-0.035,-0.0321,-0.0322,-0.0317,-0.0248,-0.0227,-0.0173,-0.0108,-0.0075,0.0006,0.0058,0.0158,0.0202,0.0245,0.0296,0.0353,0.042,0.0369,0.0374,0.0407,0.0547,0.063,0.0652,0.0435,0.0437,0.0439,0.0563,0,-0.0392,-0.0418,-0.037,-0.0367,-0.0372,-0.0282,-0.024,-0.0164,-0.009,-0.0022,0.0084,0.0148,0.0199,0.0225,0.0298,0.0393,0.0452,0.0385,0.0536,0.054,0.0603,0.067,0.0504,0.0608,0.0575,0.0578,0.0579,0,-0.044,-0.0455,-0.0479,-0.044,-0.0429,-0.0403,-0.0322,-0.0275,-0.0149,-0.0091,0.0011,0.0095,0.0212,0.0236,0.0423,0.0373,0.0457,0.0529,0.0535,0.0641,0.0648,0.0588,0.0632,0.0601,0.0599,0.0597,0.0596,0,-0.0529,-0.0522,-0.0551,-0.0536,-0.048,-0.0458,-0.0418,-0.0306,-0.027,-0.0137,-0.0095,0.0067,0.0139,0.0279,0.0451,0.043,0.0648,0.0639,0.0796,0.0802,0.0709,0.0704,0.0766,0.0766,0.0766,0.0765,0.0765,0,-0.0597,-0.0615,-0.0601,-0.0614,-0.0638,-0.0551,-0.0538,-0.0465,-0.0365,-0.0324,-0.0151,-0.0076,0.015,0.0309,0.0449,0.0683,0.0657,0.0822,0.0856,0.069,0.0682,0.0712,0.0704,0.077,0.0769,0.0768,0.0767,0,-0.0686,-0.0673,-0.0713,-0.0691,-0.0685,-0.0705,-0.0649,-0.0645,-0.0516,-0.0456,-0.042,-0.018,0.0058,0.0293,0.0542,0.0687,0.0888,0.0965,0.0762,0.0773,0.0992,0.098,0.1161,0.1166,0.1169,0.1172,0.1175,0,-0.0733,-0.0769,-0.0803,-0.0845,-0.0839,-0.0849,-0.0867,-0.0753,-0.0729,-0.0518,-0.0501,-0.0233,-0.0027,0.0408,0.0669,0.0965,0.0988,0.1018,0.0978,0.1027,0.104,0.1022,0.1006,0.0815,0.0815,0.0814,0.0814,0,-0.0832,-0.0849,-0.0895,-0.1003,-0.1043,-0.1081,-0.1072,-0.106,-0.091,-0.0811,-0.0612,-0.0416,0.0032,0.0354,0.0775,0.0907,0.0969,0.1026,0.1124,0.0766,0.0718,0.0726,0.0717,0.081,0.081,0.081,0.081,0.0811,-0.0909,-0.0987,-0.107,-0.1168,-0.1234,-0.1297,-0.132,-0.1264,-0.1204,-0.1024,-0.078,-0.0487,-0.0076,0.0468,0.0764,0.1001,0.1024,0.1055,0.1048,0.1043,0.1007,0.0971,0.1101,0.1103,0.1105,0.1106,0.1107,0,-0.1015,-0.1113,-0.1228,-0.1349,-0.1461,-0.1448,-0.1457,-0.1446,-0.1377,-0.1172,-0.0953,-0.0539,-0.0107,0.0323,0.0686,0.0984,0.0889,0.1024,0.0832,0.0833,0.0835,0.0782,0.082,0.0821,0.0822,0.0823,0,0,-0.1074,-0.1228,-0.1308,-0.1533,-0.1615,-0.1718,-0.1724,-0.1661,-0.1523,-0.1327,-0.1104,-0.0749,-0.0162,0.0069,0.042,0.0623,0.0632,0.0607,0.0787,0.051,0.0508,0.0789,0.0703,0,0,0,0,0]}],[{"header":{"parameterUnit":"m.s-1","parameterCategory":2,"la1":30.2991,"la2":30.254,"lo1":-89.0895,"lo2":-89.0444,"dy":0.0017,"dx":0.0017,"nx":28,"ny":28,"refTime":"2024-03-24T03:00:00:Z","depth":"4","parameterNumber":2,"parameterNumberName":"U-component_of_CURRENTS"},"data":[0,0,0,0,0,0,0,0,0,0,0,0,0,0,0,0,0,0,0,0,0,0,0,0,0,0,0,0,0,0,0,0,0,0,0,0,0,0,0,0,0,0,0,0,0,0,0,0,0,0,0,0,0,0,0,0,0,0,-0.1283,-0.1284,0,-0.1334,-0.1334,-0.1335,-0.137,-0.137,-0.1371,-0.1372,-0.1385,-0.1385,-0.1385,0,0,0,0,0,0,0,0,0,0,0,0,0,-0.1185,-0.1186,-0.1283,-0.1284,-0.1285,-0.1334,-0.1334,-0.1335,-0.137,-0.1371,-0.1371,-0.1372,-0.1385,-0.1385,-0.1385,0,0,0,0,0,0,0,0,0,0,0,0,0,-0.1228,-0.1187,-0.1283,-0.1311,-0.1314,-0.1334,-0.1334,-0.1335,-0.137,-0.1371,-0.1371,-0.1372,-0.1385,-0.1385,-0.1385,-0.1367,0,0,-0.1384,-0.1384,0,0,0,0,0,0,0,0,-0.1225,-0.1231,-0.1306,-0.1309,-0.1312,-0.1349,-0.1305,-0.1345,-0.137,-0.1345,-0.1372,-0.1372,-0.1371,-0.1372,-0.1376,-0.1368,-0.1368,-0.1384,-0.1384,-0.1384,-0.1384,0,0,0,0,0,0,0,-0.1222,-0.1229,-0.13,-0.1307,-0.1311,-0.131,-0.1317,-0.1312,-0.135,-0.1347,-0.1351,-0.1361,-0.1372,-0.1376,-0.1376,-0.1368,-0.1384,-0.1384,-0.1384,-0.1383,-0.14,-0.1401,0,0,0,0,0,0,-0.1223,-0.1226,-0.1299,-0.1302,-0.1273,-0.1311,-0.1319,-0.1334,-0.1351,-0.1355,-0.136,-0.1363,-0.1376,-0.1377,-0.1377,-0.1426,-0.1384,-0.1383,-0.1383,-0.14,-0.14,-0.1401,0,0,0,0,0,0,-0.1221,-0.1229,-0.1297,-0.1267,-0.1276,-0.1313,-0.1329,-0.1335,-0.1367,-0.1362,-0.1365,-0.139,-0.1377,-0.1377,-0.1399,-0.1424,-0.1383,-0.1383,-0.1399,-0.14,-0.1401,-0.1479,0,0,0,0,0,0,-0.1218,-0.1228,-0.1247,-0.1268,-0.1278,-0.1328,-0.1329,-0.1335,-0.1372,-0.1376,-0.1388,-0.1388,-0.1377,-0.1399,-0.1399,-0.1423,-0.1383,-0.1398,-0.1399,-0.1401,-0.1476,-0.1483,-0.1489,0,0,0,0,0,-0.1214,-0.1235,-0.1248,-0.1257,-0.1301,-0.133,-0.1335,-0.136,-0.1373,-0.1391,-0.1401,-0.1389,-0.1405,-0.14,-0.1399,-0.1424,-0.1398,-0.1399,-0.14,-0.1473,-0.1481,-0.1488,0,0,0,0,0,0,-0.1202,-0.1242,-0.1256,-0.1289,-0.1317,-0.1337,-0.1359,-0.1376,-0.1398,-0.1408,-0.1401,-0.1402,-0.1428,-0.1411,-0.1406,-0.1429,-0.1398,-0.1399,-0.1453,-0.1461,-0.1467,-0.1483,-0.1383,0,0,0,0,0,-0.1208,-0.1237,-0.1269,-0.1298,-0.1314,-0.1341,-0.136,-0.138,-0.1399,-0.1412,-0.1422,-0.1425,-0.1427,-0.1435,-0.1431,-0.1448,-0.1451,-0.146,-0.1466,-0.1472,-0.1482,-0.15,-0.1509,-0.1405,-0.1405,-0.1405,0,0,-0.1211,-0.1238,-0.1255,-0.1298,-0.1321,-0.1355,-0.1355,-0.1394,-0.1427,-0.1407,-0.1456,-0.145,-0.1435,-0.1456,-0.1465,-0.1451,-0.1508,-0.1473,-0.1478,-0.1486,-0.1502,-0.1512,-0.1522,-0.1406,-0.1406,-0.1406,0,0,-0.1226,-0.1257,-0.1285,-0.1316,-0.1361,-0.1379,-0.1398,-0.1436,-0.1459,-0.1498,-0.149,-0.1504,-0.1513,-0.151,-0.1506,-0.1542,-0.1539,-0.1539,-0.1589,-0.1606,-0.1615,-0.1623,-0.1669,-0.168,-0.1544,-0.1544,-0.1544,0,-0.1229,-0.1274,-0.1297,-0.1335,-0.1369,-0.1395,-0.1437,-0.1461,-0.1503,-0.1527,-0.1525,-0.1552,-0.1539,-0.1561,-0.1574,-0.1559,-0.1578,-0.1565,-0.1617,-0.1624,-0.1631,-0.1675,-0.1687,-0.1548,-0.1547,-0.1547,-0.1547,0,-0.1261,-0.1309,-0.133,-0.1389,-0.1424,-0.1465,-0.1504,-0.1545,-0.1576,-0.1598,-0.1641,-0.1628,-0.1647,-0.1639,-0.162,-0.1659,-0.1662,-0.1624,-0.1603,-0.1647,-0.169,-0.1701,-0.1553,-0.1552,-0.1551,-0.155,0,0,-0.1233,-0.1334,-0.1344,-0.1392,-0.1462,-0.1494,-0.1554,-0.1612,-0.1666,-0.1691,-0.1753,-0.1744,-0.1747,-0.1742,-0.172,-0.173,-0.1798,-0.1706,-0.1705,-0.1763,-0.1869,-0.1787,-0.1791,-0.1774,-0.1775,-0.1776,-0.189,0,-0.1254,-0.1338,-0.1383,-0.1469,-0.1517,-0.1572,-0.163,-0.1686,-0.1732,-0.1796,-0.1791,-0.1833,-0.1783,-0.1804,-0.1807,-0.1799,-0.1826,-0.1773,-0.1808,-0.181,-0.174,-0.1799,-0.1782,-0.1898,-0.1901,-0.1902,-0.1904,0,-0.1263,-0.1326,-0.1412,-0.1531,-0.1558,-0.1613,-0.1722,-0.1777,-0.1857,-0.1897,-0.1934,-0.194,-0.1968,-0.1914,-0.194,-0.1913,-0.1905,-0.1892,-0.1895,-0.1796,-0.1746,-0.1836,-0.1923,-0.1921,-0.192,-0.1918,-0.1917,0,-0.1223,-0.1344,-0.1418,-0.1457,-0.1586,-0.1644,-0.1714,-0.1807,-0.1874,-0.1965,-0.2029,-0.2051,-0.2088,-0.2069,-0.2045,-0.2007,-0.2076,-0.2016,-0.1941,-0.1937,-0.1943,-0.1932,-0.2042,-0.2042,-0.2042,-0.2042,-0.2041,0,-0.1213,-0.1278,-0.1414,-0.1455,-0.1561,-0.1647,-0.1758,-0.1834,-0.195,-0.2036,-0.2078,-0.2138,-0.2129,-0.2158,-0.2109,-0.2071,-0.2132,-0.1972,-0.1959,-0.1976,-0.1968,-0.1953,-0.1941,-0.2046,-0.2045,-0.2044,-0.2043,0,-0.1149,-0.124,-0.1335,-0.1486,-0.1544,-0.1613,-0.1788,-0.1862,-0.1984,-0.2101,-0.214,-0.2235,-0.2267,-0.2257,-0.2251,-0.2161,-0.2123,-0.2094,-0.2163,-0.2149,-0.1964,-0.1954,-0.2027,-0.2025,-0.2023,-0.2022,-0.2021,0,-0.1123,-0.1164,-0.1338,-0.1402,-0.1476,-0.1603,-0.1694,-0.1854,-0.1933,-0.214,-0.2183,-0.2288,-0.2322,-0.2261,-0.2246,-0.2187,-0.2134,-0.2127,-0.1991,-0.1981,-0.1962,-0.1955,-0.1949,-0.2018,-0.2018,-0.2017,-0.2017,0,-0.106,-0.1126,-0.1202,-0.1333,-0.1443,-0.1567,-0.1707,-0.1768,-0.1952,-0.2093,-0.2179,-0.2198,-0.2247,-0.2206,-0.219,-0.2126,-0.213,-0.2107,-0.2109,-0.1981,-0.1971,-0.1952,-0.1948,-0.2011,-0.2012,-0.2012,-0.2013,0,-0.1003,-0.1033,-0.1132,-0.1243,-0.1381,-0.1484,-0.158,-0.1695,-0.1802,-0.2033,-0.206,-0.2155,-0.2251,-0.218,-0.2157,-0.2103,-0.2039,-0.1947,-0.1955,-0.1962,-0.1876,-0.185,-0.1861,0,0,0,0,0,-0.0935,-0.0955,-0.104,-0.1149,-0.1284,-0.1359,-0.1568,-0.1664,-0.186,-0.1885,-0.197,-0.2005,-0.2007,-0.2044,-0.1961,-0.2092,-0.2025,-0.1988,-0.1919,-0.1978,-0.1985,-0.1883,0,0,0,0,0,0,-0.0885,-0.094,-0.0987,-0.105,-0.1097,-0.1229,-0.1355,-0.1495,-0.152,-0.1719,-0.1716,-0.1868,-0.1868,-0.1992,-0.1901,-0.1913,-0.1832,-0.2051,-0.2047,-0.1975,-0.1981,-0.1986,-0.1884,0,0,0,0,0]},{"header":{"parameterUnit":"m.s-1","parameterCategory":2,"la1":30.2991,"la2":30.254,"lo1":-89.0895,"lo2":-89.0444,"dy":0.0017,"dx":0.0017,"nx":28,"ny":28,"refTime":"2024-03-24T03:00:00:Z","depth":"4","parameterNumber":3,"parameterNumberName":"V-component_of_CURRENTS"},"data":[0,0,0,0,0,0,0,0,0,0,0,0,0,0,0,0,0,0,0,0,0,0,0,0,0,0,0,0,0,0,0,0,0,0,0,0,0,0,0,0,0,0,0,0,0,0,0,0,0,0,0,0,0,0,0,0,0,0,-0.0328,-0.0328,0,-0.0262,-0.0261,-0.026,-0.0225,-0.0225,-0.0225,-0.0225,-0.0149,-0.0147,-0.0145,0,0,0,0,0,0,0,0,0,0,0,0,0,-0.0365,-0.0365,-0.0328,-0.0327,-0.0327,-0.0262,-0.0261,-0.026,-0.0225,-0.0225,-0.0225,-0.0225,-0.015,-0.0147,-0.0145,0,0,0,0,0,0,0,0,0,0,0,0,0,-0.0328,-0.0365,-0.0328,-0.0303,-0.03,-0.0262,-0.0261,-0.026,-0.0225,-0.0225,-0.0225,-0.0225,-0.0151,-0.0148,-0.0145,-0.0123,0,0,-0.0135,-0.0134,0,0,0,0,0,0,0,0,-0.033,-0.0326,-0.0307,-0.0304,-0.0301,-0.0253,-0.0246,-0.0214,-0.0225,-0.0252,-0.0225,-0.0225,-0.0184,-0.0178,-0.0163,-0.0119,-0.0116,-0.0135,-0.0133,-0.0131,-0.0131,0,0,0,0,0,0,0,-0.0333,-0.0329,-0.03,-0.0306,-0.0303,-0.0275,-0.027,-0.024,-0.0217,-0.0249,-0.0247,-0.0242,-0.0182,-0.0166,-0.0161,-0.0115,-0.0135,-0.0132,-0.013,-0.0129,-0.0032,-0.0031,0,0,0,0,0,0,-0.0347,-0.0331,-0.0302,-0.0298,-0.0318,-0.0274,-0.0269,-0.0267,-0.0217,-0.021,-0.0242,-0.0241,-0.0172,-0.0165,-0.0158,-0.0122,-0.0131,-0.0128,-0.0127,-0.0033,-0.0032,-0.0031,0,0,0,0,0,0,-0.0348,-0.0345,-0.0305,-0.0314,-0.0308,-0.0274,-0.0272,-0.0266,-0.0252,-0.0212,-0.0205,-0.0236,-0.0172,-0.0163,-0.0128,-0.0119,-0.0127,-0.0124,-0.0034,-0.0033,-0.0032,-0.0054,0,0,0,0,0,0,-0.035,-0.0346,-0.0351,-0.0316,-0.0308,-0.0289,-0.0272,-0.0265,-0.025,-0.0247,-0.0204,-0.0197,-0.0171,-0.0133,-0.0125,-0.0115,-0.0122,-0.0034,-0.0033,-0.0032,-0.0055,-0.0054,-0.0054,0,0,0,0,0,-0.0351,-0.0361,-0.0351,-0.0348,-0.0315,-0.029,-0.0283,-0.0258,-0.0249,-0.0245,-0.021,-0.0198,-0.0119,-0.013,-0.0121,-0.011,-0.0035,-0.0034,-0.0032,-0.0055,-0.0054,-0.0054,0,0,0,0,0,0,-0.0381,-0.0358,-0.0346,-0.0349,-0.0323,-0.0285,-0.028,-0.0261,-0.0229,-0.0227,-0.0189,-0.0179,-0.0143,-0.0123,-0.0136,-0.0077,-0.0075,-0.0072,-0.0095,-0.0095,-0.0095,-0.0099,-0.0119,0,0,0,0,0,-0.039,-0.039,-0.0359,-0.036,-0.0351,-0.0315,-0.0302,-0.0284,-0.0252,-0.0238,-0.0205,-0.0168,-0.0129,-0.0111,-0.0076,-0.0047,-0.0017,-0.0033,-0.0033,-0.0033,-0.0029,0.0027,0.0033,-0.0026,-0.0026,-0.0026,0,0,-0.0402,-0.0388,-0.0389,-0.0366,-0.0344,-0.0331,-0.0307,-0.0291,-0.0273,-0.0235,-0.0202,-0.0166,-0.012,-0.0083,-0.0066,-0.0067,-0.0002,-0.0031,-0.0031,-0.0027,0.0029,0.0035,0.004,-0.0025,-0.0025,-0.0026,0,0,-0.0426,-0.0413,-0.0421,-0.04,-0.0373,-0.0347,-0.0346,-0.0306,-0.0283,-0.0248,-0.0211,-0.0167,-0.0119,-0.0075,-0.0049,-0.0026,-0.0001,-0.0022,-0.0025,0.0029,0.0034,0.0039,0.0076,0.0084,-0.0023,-0.0024,-0.0024,0,-0.0442,-0.0446,-0.0418,-0.0414,-0.04,-0.0358,-0.0356,-0.0321,-0.0274,-0.0251,-0.0244,-0.0147,-0.011,-0.0049,-0.004,-0.0025,0.0,-0.0033,0.0029,0.0034,0.004,0.0076,0.0086,-0.0024,-0.0024,-0.0024,-0.0024,0,-0.0465,-0.0467,-0.0468,-0.0448,-0.0426,-0.0419,-0.0369,-0.0344,-0.0312,-0.0273,-0.021,-0.015,-0.0093,-0.0073,-0.0049,0.001,0.0012,0.0022,0.0024,0.0044,0.0081,0.0092,-0.0026,-0.0025,-0.0025,-0.0025,0,0,-0.0507,-0.0492,-0.0491,-0.049,-0.0445,-0.0432,-0.0395,-0.035,-0.0327,-0.0265,-0.0226,-0.0142,-0.0107,-0.0074,-0.0031,0.0018,0.0078,0.003,0.0034,0.006,0.0184,0.0177,0.0188,0.0094,0.0096,0.0098,0.0191,0,-0.0535,-0.0554,-0.0523,-0.0523,-0.0528,-0.0469,-0.0442,-0.039,-0.0336,-0.0286,-0.0201,-0.0149,-0.0107,-0.0083,-0.0021,0.0056,0.0106,0.0051,0.0167,0.0171,0.0157,0.02,0.0104,0.0199,0.0202,0.0203,0.0205,0,-0.0563,-0.0576,-0.0596,-0.0574,-0.0568,-0.0554,-0.0501,-0.0469,-0.0379,-0.0335,-0.0254,-0.0188,-0.0089,-0.0069,0.0086,0.0046,0.0113,0.017,0.0175,0.0185,0.0184,0.018,0.0224,0.0222,0.0221,0.022,0.0218,0,-0.0618,-0.0617,-0.0641,-0.0633,-0.0603,-0.0592,-0.0568,-0.0492,-0.0468,-0.0365,-0.0334,-0.0202,-0.0142,-0.0027,0.0106,0.0095,0.0264,0.0264,0.0322,0.0321,0.0307,0.0301,0.0366,0.0366,0.0366,0.0366,0.0365,0,-0.0654,-0.067,-0.0675,-0.0686,-0.071,-0.0656,-0.0653,-0.0602,-0.0534,-0.0505,-0.0371,-0.0314,-0.013,-0.0009,0.0104,0.0253,0.027,0.0335,0.0354,0.0294,0.0285,0.0314,0.0307,0.0369,0.0368,0.0368,0.0367,0,-0.0698,-0.0703,-0.0738,-0.0736,-0.074,-0.0757,-0.0733,-0.0731,-0.0643,-0.0599,-0.057,-0.0393,-0.0224,-0.0044,0.0152,0.0243,0.0385,0.0425,0.0346,0.0357,0.0403,0.0393,0.0504,0.0504,0.0505,0.0505,0.0506,0,-0.0719,-0.0747,-0.0793,-0.0831,-0.0833,-0.0852,-0.0874,-0.0806,-0.0792,-0.0648,-0.0635,-0.0451,-0.0321,-0.0044,0.0149,0.0382,0.0404,0.0475,0.0449,0.0413,0.0421,0.0411,0.0401,0.0507,0.0507,0.0507,0.0507,0,-0.0763,-0.0789,-0.0824,-0.0914,-0.0958,-0.1002,-0.1011,-0.0998,-0.0906,-0.0834,-0.0683,-0.0495,-0.0298,-0.0059,0.0132,0.0293,0.0435,0.0482,0.0482,0.0458,0.0419,0.0424,0.0413,0.051,0.0509,0.0509,0.0509,0,-0.0798,-0.0848,-0.0914,-0.098,-0.1063,-0.112,-0.1107,-0.1066,-0.1029,-0.0846,-0.0801,-0.0546,-0.0384,-0.0105,0.0069,0.024,0.0273,0.031,0.0318,0.0319,0.0241,0.0163,0.0204,0,0,0,0,0,-0.0825,-0.089,-0.0971,-0.1053,-0.1142,-0.1184,-0.1191,-0.1156,-0.1056,-0.0975,-0.0877,-0.0687,-0.0363,-0.0207,-0.0042,0.006,0.0286,0.0258,0.0327,0.0522,0.0519,0.046,0,0,0,0,0,0,-0.0849,-0.0938,-0.0982,-0.1109,-0.1172,-0.1266,-0.1275,-0.1206,-0.1132,-0.0997,-0.0832,-0.0677,-0.0376,-0.048,-0.0055,0.0008,0.007,0.0428,0.0431,0.0523,0.0521,0.0519,0.0458,0,0,0,0,0]}]]